QPF
0.00 0.00 0.00 0.00 0.00 0.00 0.00 0.00 0.00 0.00 0.00 0.00 0.00 0.00 0.00 0.00 0.00 0.00 0.00 0.00 0.00 0.00 0.00 0.00 0.00 0.00 0.00 0.00 0.00 0.00 0.00 0.00 0.00 0.00 0.00 0.00 0.00 0.00 0.00 0.00 0.00 0.00
0.00 0.00 0.00 0.00 0.00 0.00 0.00 0.00 0.00 0.00 0.00 0.00 0.00 0.00 0.00 0.00 0.00 0.00 0.00 0.00 0.00 0.00 0.00 0.00 0.00 0.00 0.00 0.00 0.00 0.00 0.00 0.00 0.00 0.00 0.00 0.00 0.00 0.00 0.00 0.00 0.00 0.00
0.00 0.00 0.00 0.00 0.00 0.00 0.00 0.00 0.00 0.00 0.00 0.00 0.00 0.00 0.00 0.00 0.00 0.00 0.00 0.00 0.00 0.00 0.00 0.00 0.00 0.00 0.00 0.00 0.00 0.00 0.00 0.00 0.00 0.00 0.00 0.00 0.00 0.00 0.00 0.00 0.00 0.00
0.00 0.00 0.00 0.00 0.00 0.00 0.00 0.00 0.00 0.00 0.00 0.00 0.00 0.00 0.00 0.00 0.00 0.00 0.00 0.00 0.00 0.00 0.00 0.00 0.00 0.00 0.00 0.00 0.00 0.00 0.00 0.00 0.00 0.00 0.00 0.00 0.00 0.00 0.00 0.00 0.00 0.00
0.00 0.00 0.00 0.00 0.00 0.00 0.00 0.00 0.00 0.00 0.00 0.00 0.00 0.00 0.00 0.00 0.00 0.00 0.00 0.00 0.00 0.00 0.00 0.00 0.00 0.00 0.00 0.00 0.00 0.00 0.00 0.00 0.00 0.00 0.00 0.00 0.00 0.00 0.00 0.00 0.00 0.00
0.00 0.00 0.00 0.00 0.00 0.00 0.00 0.00 0.00 0.00 0.00 0.00 0.00 0.00 0.00 0.00 0.00 0.00 0.00 0.00 0.00 0.00 0.00 0.00 0.00 0.00 0.00 0.00 0.00 0.00 0.00 0.00 0.00 0.00 0.00 0.00 0.00 0.00 0.00 0.00 0.00 0.00
0.00 0.00 0.00 0.00 0.00 0.00 0.00 0.00 0.00 0.00 0.00 0.00 0.00 0.00 0.00 0.00 0.00 0.00 0.00 0.00 0.00 0.00 0.00 0.00 0.00 0.00 0.00 0.00 0.00 0.00 0.00 0.00 0.00 0.00 0.00 0.00 0.00 0.00 0.00 0.00 0.00 0.00
0.00 0.00 0.00 0.00 0.00 0.00 0.00 0.00 0.00 0.00 0.00 0.00 0.00 0.00 0.00 0.00 0.00 0.00 0.00 0.00 0.00 0.00 0.00 0.00 0.00 0.00 0.00 0.00 0.00 0.00 0.00 0.00 0.00 0.00 0.00 0.00 0.00 0.00 0.00 0.00 0.00 0.00
0.00 0.00 0.00 0.00 0.00 0.00 0.00 0.00 0.00 0.00 0.00 0.00 0.00 0.00 0.00 0.00 0.00 0.00 0.00 0.00 0.00 0.00 0.00 0.00 0.00 0.00 0.00 0.00 0.00 0.00 0.00 0.00 0.00 0.00 0.00 0.00 0.00 0.00 0.00 0.00 0.00 0.00
0.00 0.00 0.00 0.00 0.00 0.00 0.00 0.00 0.00 0.00 0.00 0.00 0.00 0.00 0.00 0.00 0.00 0.00 0.00 0.00 0.00 0.00 0.00 0.00 0.00 0.00 0.00 0.00 0.00 0.00 0.00 0.00 0.00 0.00 0.00 0.00 0.00 0.00 0.00 0.00 0.00 0.00
0.00 0.00 0.00 0.00 0.00 0.00 0.00 0.00 0.00 0.00 0.00 0.00 0.00 0.00 0.00 0.00 0.00 0.00 0.00 0.00 0.00 0.00 0.00 0.00 0.00 0.00 0.00 0.00 0.00 0.00 0.00 0.00 0.00 0.00 0.00 0.00 0.00 0.00 0.00 0.00 0.00 0.00
0.00 0.00 0.00 0.00 0.00 0.00 0.00 0.00 0.00 0.00 0.00 0.00 0.00 0.00 0.00 0.00 0.00 0.00 0.00 0.00 0.00 0.00 0.00 0.00 0.00 0.00 0.00 0.00 0.00 0.00 0.00 0.00 0.00 0.00 0.00 0.00 0.00 0.00 0.00 0.00 0.00 0.00
0.00 0.00 0.00 0.00 0.00 0.00 0.00 0.00 0.00 0.00 0.00 0.00 0.00 0.00 0.00 0.00 0.00 0.00 0.00 0.00 0.00 0.00 0.00 0.00 0.00 0.00 0.00 0.00 0.00 0.00 0.00 0.00 0.00 0.00 0.00 0.00 0.00 0.00 0.00 0.00 0.00 0.00
0.00 0.00 0.00 0.00 0.00 0.00 0.00 0.00 0.00 0.00 0.00 0.00 0.00 0.00 0.00 0.00 0.00 0.00 0.00 0.00 0.00 0.00 0.00 0.00 0.00 0.00 0.00 0.00 0.00 0.00 0.00 0.00 0.00 0.00 0.00 0.00 0.00 0.00 0.00 0.00 0.00 0.00
0.00 0.00 0.00 0.00 0.00 0.00 0.00 0.00 0.00 0.00 0.00 0.00 0.00 0.00 0.00 0.00 0.00 0.00 0.00 0.00 0.00 0.00 0.00 0.00 0.00 0.00 0.00 0.00 0.00 0.00 0.00 0.00 0.00 0.00 0.00 0.00 0.00 0.00 0.00 0.00 0.00 0.00
0.00 0.00 0.00 0.00 0.00 0.00 0.00 0.00 0.00 0.00 0.00 0.00 0.00 0.00 0.00 0.00 0.00 0.00 0.00 0.00 0.00 0.00 0.00 0.00 0.00 0.00 0.00 0.00 0.00 0.00 0.00 0.00 0.00 0.00 0.00 0.00 0.00 0.00 0.00 0.00 0.00 0.00
0.00 0.00 0.00 0.00 0.00 0.00 0.00 0.00 0.00 0.00 0.00 0.00 0.00 0.00 0.00 0.00 0.00 0.00 0.00 0.00 0.00 0.00 0.00 0.00 0.00 0.00 0.00 0.00 0.00 0.00 0.00 0.00 0.00 0.00 0.00 0.00 0.00 0.00 0.00 0.00 0.00 0.00
0.00 0.00 0.00 0.00 0.00 0.00 0.00 0.00 0.00 0.00 0.00 0.00 0.00 0.00 0.00 0.00 0.00 0.00 0.00 0.00 0.00 0.00 0.00 0.00 0.00 0.00 0.00 0.00 0.00 0.00 0.00 0.00 0.00 0.00 0.00 0.00 0.00 0.00 0.00 0.00 0.00 0.00
0.00 0.00 0.00 0.00 0.00 0.00 0.00 0.00 0.00 0.00 0.00 0.00 0.00 0.00 0.00 0.00 0.00 0.00 0.00 0.00 0.00 0.00 0.00 0.00 0.00 0.00 0.00 0.00 0.00 0.00 0.00 0.00 0.00 0.00 0.00 0.00 0.00 0.00 0.00 0.00 0.00 0.00
0.00 0.00 0.00 0.00 0.00 0.00 0.00 0.00 0.00 0.00 0.00 0.00 0.00 0.00 0.00 0.00 0.00 0.00 0.00 0.00 0.00 0.00 0.00 0.00 0.00 0.00 0.00 0.00 0.00 0.00 0.00 0.00 0.00 0.00 0.00 0.00 0.00 0.00 0.00 0.00 0.00 0.00
0.00 0.00 0.00 0.00 0.00 0.00 0.00 0.00 0.00 0.00 0.00 0.00 0.00 0.00 0.00 0.00 0.00 0.00 0.00 0.00 0.00 0.00 0.00 0.00 0.00 0.00 0.00 0.00 0.00 0.00 0.00 0.00 0.00 0.00 0.00 0.00 0.00 0.00 0.00 0.00 0.00 0.00
0.00 0.00 0.00 0.00 0.00 0.00 0.00 0.00 0.00 0.00 0.00 0.00 0.00 0.00 0.00 0.00 0.00 0.00 0.00 0.00 0.00 0.00 0.00 0.00 0.00 0.00 0.00 0.00 0.00 0.00 0.00 0.00 0.00 0.00 0.00 0.00 0.00 0.00 0.00 0.00 0.00 0.00
0.00 0.00 0.00 0.00 0.00 0.00 0.00 0.00 0.00 0.00 0.00 0.00 0.00 0.00 0.00 0.00 0.00 0.00 0.00 0.00 0.00 0.00 0.00 0.00 0.00 0.00 0.00 0.00 0.00 0.00 0.00 0.00 0.00 0.00 0.00 0.00 0.00 0.00 0.00 0.00 0.00 0.00
0.00 0.00 0.00 0.00 0.00 0.00 0.00 0.00 0.00 0.00 0.00 0.00 0.00 0.00 0.00 0.00 0.00 0.00 0.00 0.00 0.00 0.00 0.00 0.00 0.00 0.00 0.00 0.00 0.00 0.00 0.00 0.00 0.00 0.00 0.00 0.00 0.00 0.00 0.00 0.00 0.00 0.00
0.00 0.00 0.00 0.00 0.00 0.00 0.00 0.00 0.00 0.00 0.00 0.00 0.00 0.00 0.00 0.00 0.00 0.00 0.00 0.00 0.00 0.00 0.00 0.00 0.00 0.00 0.00 0.00 0.00 0.00 0.00 0.00 0.00 0.00 0.00 0.00 0.00 0.00 0.00 0.00 0.00 0.00
0.00 0.00 0.00 0.00 0.00 0.00 0.00 0.00 0.00 0.00 0.00 0.00 0.00 0.00 0.00 0.00 0.00 0.00 0.00 0.00 0.00 0.00 0.00 0.00 0.00 0.00 0.00 0.00 0.00 0.00 0.00 0.00 0.00 0.00 0.00 0.00 0.00 0.00 0.00 0.00 0.00 0.00
MSLP
1020.53 1020.93 1021.33 1021.73 1022.01 1022.17 1022.37 1022.53 1022.69 1022.81 1023.01 1023.17 1023.25 1023.33 1023.37 1023.45 1023.41 1023.37 1023.37 1023.33 1023.33 1023.37 1023.45 1023.53 1023.65 1023.81 1024.01 1024.17 1024.33 1024.49 1024.77 1025.05 1025.29 1025.53 1025.69 1025.85 1026.05 1026.13 1026.29 1026.41 1026.45 1026.45
1020.77 1021.05 1021.41 1021.81 1022.13 1022.33 1022.49 1022.53 1022.69 1022.81 1023.09 1023.29 1023.41 1023.49 1023.61 1023.57 1023.57 1023.49 1023.45 1023.49 1023.53 1023.65 1023.69 1023.81 1023.97 1024.13 1024.33 1024.53 1024.73 1024.89 1025.17 1025.37 1025.61 1025.85 1026.01 1026.17 1026.37 1026.41 1026.53 1026.61 1026.65 1026.65
1020.85 1021.21 1021.49 1021.81 1022.09 1022.37 1022.53 1022.69 1022.73 1022.89 1023.13 1023.41 1023.57 1023.65 1023.73 1023.73 1023.73 1023.65 1023.65 1023.65 1023.73 1023.89 1024.01 1024.13 1024.29 1024.49 1024.65 1024.85 1025.01 1025.21 1025.49 1025.73 1025.97 1026.17 1026.25 1026.45 1026.57 1026.65 1026.77 1026.77 1026.77 1026.73
1021.05 1021.25 1021.57 1021.89 1022.09 1022.29 1022.49 1022.69 1022.81 1023.05 1023.33 1023.53 1023.69 1023.77 1023.81 1023.85 1023.81 1023.81 1023.81 1023.85 1023.97 1024.13 1024.29 1024.37 1024.57 1024.77 1024.93 1025.13 1025.33 1025.61 1025.85 1026.05 1026.25 1026.37 1026.45 1026.65 1026.77 1026.81 1026.89 1026.85 1026.89 1026.93
1021.13 1021.49 1021.73 1021.93 1022.13 1022.29 1022.45 1022.61 1022.85 1023.21 1023.45 1023.73 1023.89 1023.97 1024.01 1024.05 1024.05 1024.05 1024.09 1024.21 1024.25 1024.41 1024.57 1024.73 1024.85 1025.05 1025.21 1025.41 1025.61 1025.93 1026.17 1026.33 1026.45 1026.57 1026.69 1026.89 1026.97 1026.93 1026.97 1026.97 1027.05 1027.17
1021.37 1021.57 1021.77 1021.97 1022.17 1022.33 1022.53 1022.73 1023.09 1023.37 1023.69 1023.89 1024.09 1024.21 1024.25 1024.25 1024.29 1024.33 1024.37 1024.45 1024.53 1024.65 1024.85 1025.01 1025.17 1025.33 1025.49 1025.73 1025.93 1026.17 1026.37 1026.53 1026.69 1026.73 1026.89 1027.01 1027.13 1027.09 1027.09 1027.17 1027.25 1027.41
1021.53 1021.69 1021.89 1022.09 1022.29 1022.49 1022.69 1023.01 1023.29 1023.61 1023.85 1024.05 1024.21 1024.37 1024.41 1024.49 1024.57 1024.61 1024.65 1024.69 1024.77 1024.93 1025.09 1025.25 1025.37 1025.57 1025.73 1025.93 1026.13 1026.37 1026.57 1026.73 1026.85 1026.89 1027.01 1027.13 1027.13 1027.25 1027.33 1027.41 1027.53 1027.69
1021.61 1021.81 1021.97 1022.21 1022.41 1022.73 1022.93 1023.21 1023.53 1023.81 1024.01 1024.25 1024.41 1024.65 1024.57 1024.69 1024.77 1024.85 1024.85 1024.89 1025.01 1025.21 1025.33 1025.49 1025.61 1025.77 1025.93 1026.01 1026.25 1026.49 1026.69 1026.85 1026.97 1027.01 1027.09 1027.21 1027.21 1027.41 1027.61 1027.73 1027.81 1027.89
1021.73 1021.97 1022.13 1022.33 1022.57 1022.93 1023.13 1023.41 1023.73 1024.01 1024.21 1024.41 1024.73 1024.89 1024.89 1024.89 1024.97 1025.01 1025.05 1025.13 1025.29 1025.49 1025.61 1025.77 1025.89 1026.05 1026.13 1026.17 1026.37 1026.53 1026.77 1026.97 1027.01 1027.01 1027.05 1027.17 1027.41 1027.61 1027.77 1027.89 1027.93 1028.05
1021.89 1022.09 1022.29 1022.49 1022.77 1023.09 1023.29 1023.61 1023.93 1024.25 1024.41 1024.61 1024.93 1025.05 1025.13 1025.25 1025.17 1025.17 1025.21 1025.33 1025.53 1025.77 1025.89 1026.05 1026.17 1026.29 1026.41 1026.45 1026.49 1026.61 1026.81 1026.93 1027.01 1027.09 1027.17 1027.33 1027.49 1027.69 1027.81 1027.93 1027.93 1028.01
1022.01 1022.17 1022.41 1022.65 1022.97 1023.25 1023.49 1023.85 1024.17 1024.49 1024.65 1024.81 1025.01 1025.21 1025.33 1025.33 1025.45 1025.41 1025.49 1025.61 1025.81 1026.01 1026.17 1026.29 1026.45 1026.49 1026.57 1026.69 1026.81 1026.85 1026.89 1026.97 1027.05 1027.13 1027.25 1027.41 1027.57 1027.73 1027.85 1027.93 1028.01 1028.13
1022.05 1022.25 1022.45 1022.77 1023.17 1023.49 1023.73 1024.05 1024.37 1024.65 1024.89 1025.01 1025.01 1025.25 1025.49 1025.57 1025.65 1025.77 1025.81 1026.05 1026.25 1026.41 1026.49 1026.65 1026.77 1026.77 1026.77 1026.85 1026.89 1026.89 1026.97 1027.09 1027.17 1027.25 1027.41 1027.53 1027.69 1027.81 1027.89 1027.97 1028.09 1028.29
1022.05 1022.25 1022.53 1022.93 1023.29 1023.65 1023.93 1024.25 1024.57 1024.85 1025.01 1025.17 1025.21 1025.33 1025.61 1025.85 1026.01 1026.09 1026.29 1026.33 1026.57 1026.65 1026.73 1026.81 1026.89 1026.93 1026.97 1027.01 1027.01 1026.97 1027.01 1027.17 1027.41 1027.53 1027.61 1027.65 1027.73 1027.81 1027.89 1028.09 1028.25 1028.33
1022.05 1022.29 1022.65 1023.09 1023.45 1023.77 1024.09 1024.45 1024.77 1025.01 1025.25 1025.37 1025.41 1025.61 1025.89 1026.13 1026.25 1026.37 1026.57 1026.61 1026.77 1026.85 1027.01 1027.01 1026.97 1027.05 1027.17 1027.17 1027.13 1027.09 1027.13 1027.29 1027.45 1027.57 1027.61 1027.69 1027.77 1027.89 1028.05 1028.21 1028.33 1028.29
1022.13 1022.45 1022.81 1023.17 1023.53 1023.93 1024.33 1024.65 1024.97 1025.21 1025.45 1025.57 1025.69 1025.93 1026.21 1026.45 1026.57 1026.61 1026.65 1026.81 1026.97 1027.05 1027.09 1027.09 1027.01 1027.13 1027.21 1027.17 1027.05 1027.17 1027.21 1027.29 1027.45 1027.57 1027.61 1027.65 1027.77 1027.97 1028.21 1028.25 1028.25 1028.21
1022.17 1022.53 1022.93 1023.29 1023.69 1024.09 1024.49 1024.81 1025.13 1025.37 1025.61 1025.81 1025.97 1026.17 1026.41 1026.61 1026.73 1026.85 1026.85 1026.89 1026.93 1027.13 1027.17 1027.17 1027.25 1027.33 1027.33 1027.29 1027.29 1027.25 1027.29 1027.37 1027.53 1027.61 1027.61 1027.61 1027.69 1027.93 1028.17 1028.21 1028.17 1028.17
1022.29 1022.69 1023.05 1023.41 1023.81 1024.21 1024.61 1024.89 1025.21 1025.49 1025.77 1026.01 1026.17 1026.33 1026.53 1026.73 1026.85 1026.93 1027.05 1027.13 1027.09 1027.05 1027.13 1027.33 1027.45 1027.45 1027.37 1027.29 1027.29 1027.45 1027.41 1027.41 1027.49 1027.65 1027.73 1027.77 1027.73 1027.93 1028.13 1028.13 1028.13 1028.21
1022.37 1022.77 1023.13 1023.57 1023.93 1024.33 1024.65 1024.97 1025.29 1025.57 1025.89 1026.09 1026.25 1026.45 1026.69 1026.85 1026.97 1027.13 1027.25 1027.29 1027.33 1027.33 1027.37 1027.49 1027.57 1027.57 1027.41 1027.21 1027.21 1027.29 1027.45 1027.49 1027.53 1027.57 1027.81 1027.93 1028.21 1028.21 1028.21 1028.17 1028.17 1028.25
1022.37 1022.73 1023.21 1023.61 1023.97 1024.33 1024.69 1025.05 1025.37 1025.69 1025.97 1026.17 1026.37 1026.57 1026.77 1026.93 1027.17 1027.29 1027.33 1027.41 1027.25 1027.21 1027.45 1027.65 1027.61 1027.65 1027.45 1027.37 1027.33 1027.33 1027.37 1027.45 1027.65 1027.73 1027.77 1028.09 1028.21 1028.25 1028.25 1028.17 1028.25 1028.29
1022.33 1022.73 1023.21 1023.61 1023.97 1024.33 1024.69 1025.09 1025.37 1025.69 1026.01 1026.21 1026.41 1026.65 1026.85 1027.13 1027.33 1027.37 1027.41 1027.29 1027.29 1027.33 1027.57 1027.73 1027.69 1027.73 1027.65 1027.49 1027.41 1027.49 1027.53 1027.57 1027.81 1027.85 1027.97 1028.09 1028.17 1028.21 1028.25 1028.25 1028.29 1028.33
1022.33 1022.73 1023.17 1023.61 1023.93 1024.29 1024.69 1025.05 1025.37 1025.77 1026.05 1026.25 1026.45 1026.65 1026.85 1027.05 1027.25 1027.33 1027.37 1027.37 1027.41 1027.49 1027.49 1027.69 1027.85 1027.89 1027.73 1027.53 1027.57 1027.61 1027.69 1027.77 1027.89 1028.01 1028.13 1028.25 1028.37 1028.41 1028.37 1028.29 1028.33 1028.41
1022.21 1022.69 1023.09 1023.49 1023.85 1024.21 1024.61 1025.05 1025.37 1025.65 1025.97 1026.29 1026.53 1026.85 1027.09 1027.33 1027.49 1027.45 1027.37 1027.37 1027.49 1027.45 1027.45 1027.69 1027.97 1027.97 1027.81 1027.73 1027.77 1027.81 1027.81 1027.93 1027.97 1028.01 1028.17 1028.29 1028.37 1028.49 1028.49 1028.53 1028.53 1028.49
1021.97 1022.49 1022.97 1023.37 1023.73 1024.13 1024.57 1024.97 1025.37 1025.73 1026.05 1026.25 1026.57 1026.89 1027.09 1027.29 1027.29 1027.29 1027.41 1027.41 1027.45 1027.45 1027.45 1027.85 1027.97 1028.05 1027.89 1027.81 1027.93 1028.01 1027.93 1028.13 1028.13 1028.21 1028.29 1028.29 1028.41 1028.57 1028.57 1028.45 1028.41 1028.41
1021.81 1022.21 1022.77 1023.25 1023.65 1024.01 1024.49 1024.93 1025.29 1025.65 1025.93 1026.21 1026.41 1026.81 1027.05 1027.21 1027.29 1027.37 1027.49 1027.49 1027.41 1027.49 1027.57 1027.69 1027.93 1028.01 1027.93 1027.89 1027.93 1028.05 1028.01 1028.05 1028.17 1028.13 1028.29 1028.33 1028.37 1028.45 1028.49 1028.49 1028.57 1028.41
1021.73 1022.09 1022.57 1023.09 1023.49 1024.01 1024.37 1024.85 1025.25 1025.53 1025.89 1026.21 1026.49 1026.73 1026.93 1027.21 1027.29 1027.29 1027.49 1027.61 1027.61 1027.65 1027.69 1027.69 1027.85 1027.85 1027.89 1027.89 1028.01 1028.09 1028.17 1028.29 1028.21 1028.09 1028.13 1028.29 1028.33 1028.29 1028.45 1028.41 1028.21 1028.33
1021.61 1021.97 1022.41 1022.85 1023.37 1023.97 1024.37 1024.73 1025.17 1025.57 1025.89 1026.21 1026.53 1026.77 1026.97 1027.13 1027.21 1027.29 1027.29 1027.53 1027.73 1027.73 1027.77 1027.81 1027.77 1027.85 1027.89 1027.97 1028.05 1028.13 1028.21 1028.25 1028.29 1028.01 1028.05 1028.21 1028.37 1028.29 1028.09 1028.01 1028.13 1028.17
Thickness
5628 5625 5623 5621 5619 5618 5618 5618 5618 5616 5615 5613 5612 5611 5610 5609 5609 5609 5609 5608 5607 5605 5603 5601 5599 5596 5593 5589 5586 5582 5579 5575 5572 5568 5564 5561 5557 5554 5551 5549 5547 5545
5626 5624 5621 5619 5617 5616 5616 5616 5616 5614 5612 5609 5608 5607 5607 5606 5606 5606 5605 5604 5603 5601 5599 5596 5593 5590 5586 5583 5579 5576 5573 5569 5565 5561 5558 5555 5551 5549 5546 5544 5542 5541
5624 5622 5620 5618 5617 5615 5614 5613 5613 5611 5608 5606 5605 5604 5604 5603 5603 5602 5602 5600 5598 5596 5593 5590 5587 5584 5581 5577 5574 5570 5567 5563 5559 5556 5552 5549 5546 5543 5541 5539 5538 5536
5622 5620 5619 5616 5615 5614 5612 5611 5610 5608 5605 5603 5602 5601 5601 5600 5599 5599 5597 5596 5594 5591 5588 5585 5582 5578 5575 5571 5568 5564 5560 5557 5553 5550 5548 5544 5542 5539 5537 5535 5533 5532
5620 5618 5616 5614 5613 5612 5611 5609 5607 5604 5602 5600 5599 5598 5597 5596 5595 5595 5593 5591 5589 5586 5583 5580 5576 5573 5569 5566 5562 5558 5554 5552 5548 5545 5542 5539 5536 5534 5533 5531 5529 5526
5617 5615 5614 5612 5611 5610 5608 5607 5604 5602 5599 5597 5596 5595 5593 5593 5591 5590 5589 5587 5585 5582 5579 5575 5571 5568 5564 5560 5557 5553 5549 5547 5543 5540 5537 5534 5532 5530 5528 5526 5523 5520
5614 5612 5612 5610 5609 5607 5606 5604 5601 5598 5596 5594 5592 5591 5590 5589 5587 5586 5585 5583 5580 5577 5573 5569 5566 5562 5559 5556 5552 5547 5544 5541 5539 5536 5533 5530 5529 5526 5523 5520 5517 5514
5612 5611 5609 5608 5606 5605 5602 5601 5598 5595 5592 5590 5588 5587 5586 5585 5583 5582 5581 5578 5576 5572 5568 5565 5561 5557 5554 5551 5548 5543 5539 5536 5534 5532 5529 5527 5524 5521 5518 5514 5511 5508
5610 5608 5606 5605 5603 5601 5599 5597 5594 5591 5589 5587 5584 5583 5582 5581 5579 5578 5576 5574 5571 5567 5563 5560 5556 5553 5550 5546 5543 5540 5536 5532 5530 5528 5525 5523 5519 5515 5512 5509 5506 5503
5606 5604 5603 5602 5600 5598 5596 5593 5590 5587 5585 5584 5581 5579 5579 5577 5576 5574 5572 5570 5566 5562 5559 5555 5551 5548 5545 5542 5539 5535 5532 5529 5527 5524 5522 5519 5515 5511 5507 5504 5502 5498
5603 5601 5599 5598 5596 5594 5592 5589 5586 5583 5581 5580 5578 5576 5574 5573 5571 5569 5567 5565 5561 5557 5553 5549 5546 5543 5540 5537 5534 5532 5529 5526 5523 5520 5517 5514 5510 5507 5503 5500 5497 5493
5600 5598 5596 5595 5592 5590 5588 5584 5581 5579 5577 5576 5575 5573 5570 5568 5566 5564 5562 5559 5555 5552 5548 5545 5542 5539 5535 5533 5530 5528 5525 5522 5519 5516 5513 5510 5506 5503 5500 5496 5492 5489
5597 5596 5594 5592 5589 5586 5583 5580 5577 5575 5573 5572 5571 5569 5566 5563 5561 5558 5556 5554 5550 5546 5544 5540 5537 5535 5531 5529 5526 5524 5522 5518 5515 5511 5508 5505 5502 5499 5496 5492 5488 5484
5595 5593 5590 5588 5585 5582 5579 5576 5573 5571 5569 5568 5567 5564 5561 5558 5556 5553 5551 5548 5545 5542 5539 5536 5534 5530 5527 5525 5522 5520 5518 5514 5511 5508 5504 5502 5499 5495 5491 5487 5484 5481
5592 5589 5587 5584 5581 5578 5575 5572 5569 5566 5565 5564 5562 5559 5556 5553 5551 5548 5546 5543 5540 5537 5534 5532 5530 5527 5524 5522 5519 5516 5513 5511 5507 5504 5501 5498 5495 5491 5487 5483 5480 5477
5588 5586 5583 5580 5578 5574 5571 5568 5565 5562 5561 5558 5556 5554 5551 5548 5546 5543 5541 5538 5536 5533 5531 5528 5525 5523 5521 5518 5515 5512 5509 5507 5504 5501 5498 5495 5492 5487 5483 5480 5477 5473
5585 5582 5579 5576 5574 5570 5567 5564 5560 5559 5556 5553 5552 5549 5546 5543 5541 5538 5536 5533 5531 5529 5527 5524 5521 5519 5517 5514 5512 5509 5506 5503 5500 5497 5494 5491 5488 5484 5479 5476 5473 5469
5582 5579 5576 5572 5569 5566 5563 5559 5556 5554 5552 5549 5547 5544 5541 5538 5535 5533 5531 5529 5527 5525 5522 5519 5517 5515 5513 5511 5508 5506 5503 5500 5497 5494 5490 5487 5483 5479 5476 5473 5470 5466
5578 5575 5571 5568 5565 5562 5558 5556 5553 5550 5547 5545 5542 5539 5537 5534 5531 5529 5527 5525 5523 5521 5517 5515 5513 5511 5509 5507 5505 5502 5499 5496 5493 5490 5487 5483 5479 5476 5473 5470 5466 5463
5574 5572 5568 5564 5561 5558 5554 5551 5548 5545 5543 5540 5538 5535 5532 5529 5526 5524 5523 5521 5519 5517 5513 5511 5508 5506 5505 5503 5501 5499 5496 5493 5490 5487 5483 5480 5476 5473 5470 5467 5464 5460
5571 5567 5564 5560 5557 5554 5551 5548 5545 5542 5539 5535 5533 5531 5528 5525 5522 5521 5519 5517 5515 5513 5510 5507 5504 5502 5501 5499 5497 5494 5492 5490 5486 5483 5480 5476 5473 5470 5467 5464 5460 5457
5567 5564 5560 5557 5553 5550 5547 5544 5540 5538 5534 5531 5529 5525 5523 5520 5518 5517 5516 5513 5511 5509 5507 5503 5500 5498 5497 5495 5492 5490 5488 5485 5482 5479 5476 5473 5469 5466 5463 5460 5458 5454
5565 5561 5557 5553 5550 5547 5543 5540 5536 5533 5531 5528 5524 5521 5518 5516 5514 5513 5511 5509 5507 5505 5502 5499 5496 5493 5492 5490 5488 5485 5483 5480 5478 5475 5472 5469 5466 5463 5460 5458 5455 5452
5562 5559 5555 5550 5547 5543 5539 5535 5532 5529 5526 5523 5520 5517 5514 5512 5511 5508 5507 5505 5503 5501 5498 5495 5492 5490 5488 5486 5484 5482 5479 5476 5474 5472 5469 5466 5464 5461 5458 5455 5452 5450
5558 5555 5551 5547 5543 5539 5535 5532 5528 5525 5522 5519 5516 5514 5511 5508 5507 5505 5502 5500 5498 5496 5494 5491 5488 5486 5484 5482 5479 5478 5475 5472 5470 5468 5466 5464 5461 5458 5455 5452 5450 5449
5555 5551 5548 5544 5540 5535 5532 5528 5524 5521 5518 5514 5511 5509 5506 5504 5502 5501 5498 5495 5493 5491 5489 5487 5484 5482 5480 5478 5475 5473 5471 5469 5467 5465 5463 5461 5458 5455 5453 5451 5449 5448